Temperature
23 23 23 23 23 23 22 22 21 22 22 22 22 21 20 20 19 18 18 17 17 16 16 16 16 15 15 15 15 15 15 15 14 14 14 14 14 14 14 14 13 13 13 13
22 23 23 22 23 23 22 22 22 22 21 22 22 20 20 19 18 18 17 17 16 16 16 16 16 15 15 15 15 15 14 14 14 14 14 14 14 13 13 13 13 13 13 13
21 22 22 21 22 22 22 22 22 21 21 21 20 20 19 18 18 17 17 16 16 16 15 15 15 15 15 15 15 14 14 14 14 14 14 14 13 13 13 13 13 13 13 13
20 21 20 21 22 22 22 22 22 21 21 20 20 19 18 18 17 17 16 16 16 15 15 15 15 15 15 14 14 14 14 14 13 13 13 13 13 13 13 13 12 12 12 12
19 19 20 21 22 21 21 20 21 21 20 19 19 18 18 17 16 16 16 15 15 15 15 14 14 14 14 14 14 14 13 13 13 13 13 13 13 12 12 12 12 12 12 12
19 18 19 20 21 21 20 19 20 20 19 19 18 17 17 16 16 15 15 15 15 14 14 14 14 14 14 14 14 13 13 13 13 12 12 12 12 12 12 12 12 12 12 11
18 18 19 19 20 20 18 18 19 19 18 18 18 17 16 16 15 15 15 14 14 14 14 14 14 14 14 13 13 13 13 13 12 12 12 12 12 12 12 12 11 11 11 11
18 17 18 18 19 18 18 18 18 18 17 17 17 16 15 15 15 15 14 14 14 13 13 13 13 13 13 13 13 13 13 12 12 12 12 12 12 12 12 11 11 11 11 11
18 17 18 18 18 17 17 17 17 17 16 16 16 15 15 14 14 14 14 13 13 13 13 13 13 13 13 13 13 13 12 12 12 12 12 11 11 11 11 11 11 10 10 10
18 18 17 17 17 16 16 16 16 16 15 15 15 14 14 14 14 13 13 13 12 12 12 12 12 12 13 13 12 12 12 12 11 11 11 11 11 11 11 11 10 10 10 10
17 17 17 16 16 16 15 15 15 15 14 14 14 14 14 13 13 13 12 12 12 12 12 12 12 12 12 12 12 12 12 11 11 11 11 11 11 11 10 10 10 10 10 10
16 17 16 16 15 15 15 14 14 14 14 13 13 13 13 13 12 12 12 12 12 12 12 11 11 12 12 12 12 12 11 11 11 11 11 10 10 10 10 10 10 10 10 10
16 16 15 15 14 14 14 14 14 13 13 13 13 12 12 12 12 12 12 12 11 11 11 11 11 11 11 11 11 11 11 11 11 10 10 10 10 10 10 10 10 10 10 10
15 15 14 14 14 14 13 13 13 13 13 12 12 12 12 12 12 11 11 11 11 11 11 11 11 11 11 11 11 11 11 11 10 10 10 10 10 9 9 10 10 9 10 9
14 14 14 14 13 13 13 12 12 12 12 12 12 11 11 11 11 11 11 11 11 11 11 11 11 11 11 11 10 10 10 10 10 10 10 10 9 9 9 9 9 9 9 9
13 13 13 13 13 12 12 12 12 12 12 11 11 11 11 11 10 10 10 10 10 10 10 10 10 10 10 10 10 10 10 10 9 9 9 9 9 9 9 9 9 9 9 9
12 12 12 12 12 12 12 11 11 11 11 11 11 10 10 10 10 10 10 10 10 10 10 10 10 10 9 9 9 9 9 9 9 9 9 9 8 8 8 8 9 9 9 8
12 12 12 12 12 11 11 11 11 11 10 10 10 10 10 10 9 9 9 9 9 9 9 9 9 9 9 9 9 9 9 9 8 8 8 8 8 8 8 8 8 8 8 8
11 11 11 11 11 11 10 10 10 10 10 10 10 9 9 9 9 9 9 9 9 9 9 9 9 9 9 8 8 8 8 8 8 8 8 8 8 8 8 7 8 8 8 8
11 10 10 10 10 10 10 9 9 9 9 9 9 9 9 9 8 8 8 8 8 8 8 8 8 8 8 8 8 8 8 7 7 7 7 7 7 7 7 7 7 7 7 7
10 10 9 9 9 9 9 9 9 9 8 8 8 8 8 8 8 8 8 8 8 8 8 8 8 7 7 7 7 7 7 7 7 7 7 7 7 6 7 7 7 7 7 7
9 9 9 9 9 9 9 8 8 8 8 8 8 8 7 7 7 7 7 7 7 7 7 7 7 7 7 7 7 6 6 6 6 6 6 6 6 6 6 6 6 6 6 6
9 9 8 8 8 8 8 8 8 8 7 7 7 7 7 7 7 7 7 7 7 7 7 6 6 6 6 6 6 6 6 6 6 6 6 6 6 6 5 6 6 5 5 5
8 8 8 8 8 8 7 7 7 7 7 7 7 7 7 7 6 6 6 6 6 6 6 6 6 5 5 5 5 5 5 5 5 5 5 5 5 5 5 5 5 5 5 5
8 8 8 7 7 7 7 7 7 7 6 6 6 6 6 6 6 6 6 6 6 6 5 5 5 5 5 5 5 5 5 5 5 5 5 5 4 4 4 4 4 4 4 4
7 7 7 7 7 7 7 6 6 6 6 6 6 5 5 5 5 5 5 5 5 5 5 5 4 4 4 4 4 4 4 4 4 4 4 4 4 4 4 4 4 4 4 4
7 7 7 6 6 6 6 6 6 5 5 5 5 5 5 5 5 5 5 5 5 5 4 4 4 4 4 4 4 4 4 4 4 4 4 4 4 4 4 4 4 3 3 4
Wind_Speed
10 9 9 9 9 9 9 9 9 9 7 3 2 2 2 2 2 2 2 1 1 0 1 1 1 1 1 2 3 4 4 4 3 2 2 2 2 1 1 1 2 2 2 1
12 10 10 12 12 11 11 10 10 9 7 4 4 3 2 2 2 1 2 2 1 1 1 1 1 2 2 1 2 3 4 4 3 3 3 2 2 2 1 1 1 2 2 2
10 9 9 10 8 9 8 7 7 7 4 3 3 2 2 2 1 1 1 1 2 2 2 2 2 1 2 2 2 2 3 3 3 3 3 3 2 2 2 2 1 2 2 2
8 9 10 3 1 2 4 5 4 2 2 3 3 3 3 3 2 2 2 2 2 2 2 3 2 1 1 2 3 2 2 3 3 3 3 3 3 3 2 2 2 2 1 2
6 8 8 5 2 1 3 4 2 2 2 3 3 1 1 3 4 3 3 3 2 2 3 3 2 1 2 3 3 3 3 3 3 3 3 3 3 3 3 2 2 2 2 2
7 8 6 1 2 3 3 3 2 3 3 3 3 3 2 3 3 4 4 3 2 3 3 3 3 2 3 2 2 2 2 3 3 3 3 4 4 4 3 3 3 3 3 3
9 9 4 2 2 1 2 2 4 3 3 3 3 3 3 4 3 3 3 3 2 3 3 3 3 2 3 2 2 2 2 2 3 4 4 4 4 3 3 3 3 3 2 3
7 8 4 3 1 2 4 4 4 4 4 4 4 4 3 4 4 3 3 3 3 2 3 3 2 2 3 2 1 1 2 2 3 3 4 4 4 4 3 3 4 3 3 2
3 2 2 2 3 4 5 5 5 5 5 5 4 3 4 4 4 3 3 3 3 2 3 3 2 2 2 1 1 1 2 3 3 3 3 3 4 4 3 3 3 3 3 2
5 3 1 2 3 3 4 5 5 5 5 5 5 5 4 4 4 4 3 3 3 3 3 3 3 2 2 1 1 1 2 2 3 3 3 3 3 3 3 4 4 4 3 3
8 6 4 3 3 3 3 5 5 5 5 5 5 5 4 4 4 3 4 3 3 3 3 3 3 3 2 1 1 2 2 2 2 2 3 3 3 3 4 4 5 5 4 4
7 5 5 3 2 3 4 5 5 5 5 5 5 5 5 4 3 3 3 3 3 3 3 3 3 2 2 1 1 2 2 2 2 2 2 3 3 1 1 2 4 6 6 5
7 5 4 4 4 4 4 5 5 4 4 5 5 4 4 4 3 3 3 3 3 3 3 4 3 2 2 2 2 2 2 2 1 1 2 2 2 3 2 1 1 3 5 5
5 5 5 4 4 3 4 5 5 5 4 4 4 4 3 3 4 4 4 4 3 3 3 3 3 2 2 1 2 2 2 2 1 2 2 2 2 3 3 3 2 2 3 5
5 5 5 4 3 3 3 4 5 4 4 4 3 3 3 4 4 4 4 4 4 4 3 3 2 2 1 1 2 2 1 1 1 1 2 2 2 2 3 3 3 2 2 2
6 5 5 4 4 4 4 4 5 5 4 4 4 3 3 4 4 4 4 4 4 4 4 3 3 2 2 1 1 2 1 2 2 1 2 2 2 2 3 3 3 3 3 3
6 6 5 5 5 5 4 4 5 4 4 4 4 4 3 3 4 4 4 4 4 4 4 3 3 2 2 2 2 1 1 2 3 2 2 2 2 3 3 3 3 3 3 4
6 5 5 4 4 4 4 4 5 5 4 4 5 4 3 3 4 4 4 4 4 4 4 3 3 3 2 2 1 1 1 1 1 2 2 2 3 3 3 3 4 4 3 3
4 4 3 3 3 3 4 4 4 4 4 4 4 4 3 3 3 4 4 4 4 4 4 4 5 4 3 2 2 1 2 2 2 2 3 4 3 3 2 3 3 3 3 3
3 3 2 3 3 4 4 4 4 4 4 4 5 4 4 3 3 3 4 4 3 2 3 4 3 3 3 3 3 2 2 2 2 2 2 3 3 3 2 3 3 3 2 2
2 2 3 4 4 4 4 4 4 4 4 4 4 5 5 4 3 3 3 3 3 2 3 4 3 3 3 3 3 2 2 2 2 2 2 2 3 3 3 3 3 3 3 2
1 2 3 3 3 3 3 4 3 4 4 3 4 4 4 4 3 3 3 2 2 2 2 2 2 3 4 5 3 2 2 2 2 2 2 2 2 2 2 3 2 2 2 2
1 1 2 3 4 4 3 3 3 3 3 4 4 4 4 3 3 2 3 2 1 2 1 1 2 4 5 4 2 2 2 2 2 2 1 1 2 2 2 2 2 2 2 1
2 2 2 3 3 3 4 3 3 3 3 3 3 3 3 3 2 2 1 2 2 2 1 2 3 4 4 3 2 2 2 2 2 2 2 1 2 2 2 2 2 1 2 2
3 3 3 3 3 3 3 3 3 3 3 2 2 3 2 2 2 2 2 2 2 2 2 2 3 4 3 2 2 2 2 2 2 2 1 1 1 2 2 2 1 1 2 2
4 3 3 3 3 3 2 2 2 2 2 2 2 2 2 2 2 2 2 2 3 2 2 1 2 2 2 2 2 2 2 2 2 2 1 2 2 1 1 2 2 2 2 2
4 3 3 3 2 2 2 2 2 2 2 2 2 2 2 2 2 2 3 3 2 2 2 2 2 2 2 2 2 2 2 2 1 1 1 2 2 2 1 2 2 2 2 2
Wind_Direction
279 283 284 279 272 263 260 267 276 285 292 309 10 66 58 64 74 59 30 44 69 254 202 187 221 225 213 213 197 191 181 187 197 178 138 136 148 160 149 181 201 171 160 176
276 270 270 268 265 261 260 267 273 285 298 343 24 52 30 35 52 37 22 2 356 321 285 243 237 223 206 223 215 197 184 184 170 159 145 145 160 154 152 201 176 147 162 161
277 277 272 260 259 258 260 266 272 280 310 360 15 16 17 29 29 17 19 355 331 330 309 273 254 237 204 212 215 213 193 169 159 160 153 160 172 158 163 185 165 133 149 145
275 272 255 258 9 303 283 284 285 310 13 11 2 4 35 44 37 10 357 343 330 313 302 297 285 271 237 217 210 207 193 180 168 165 164 170 178 175 172 173 159 173 177 150
263 266 267 262 272 271 288 290 319 323 358 19 354 327 63 42 25 359 344 344 334 318 315 305 287 271 245 227 207 203 202 193 181 168 177 186 186 186 181 173 182 197 184 169
259 263 265 322 29 13 307 261 40 20 11 1 333 305 331 14 8 356 348 343 341 331 316 308 299 283 269 241 208 204 210 203 196 187 185 195 192 190 181 175 196 196 181 180
252 259 264 14 7 337 257 357 32 22 8 344 325 347 5 353 352 348 344 341 343 331 319 309 295 278 269 254 218 202 206 219 207 192 190 192 185 183 177 181 185 186 187 189
242 248 253 57 6 334 7 21 12 10 4 356 358 10 3 345 340 342 344 336 343 349 336 324 292 264 267 267 238 185 187 213 214 197 197 187 172 182 186 188 182 184 185 192
266 265 29 25 9 9 6 350 355 360 2 352 342 342 339 334 334 337 333 332 339 338 320 316 309 283 266 256 216 200 197 205 209 202 196 182 176 177 186 187 185 189 185 192
273 259 248 306 326 342 342 335 345 350 344 332 322 323 327 327 330 335 333 329 326 321 322 324 324 308 279 240 194 218 206 207 202 201 196 187 179 183 187 189 190 196 196 196
267 273 273 260 285 311 318 323 327 331 328 324 320 318 320 319 327 332 328 319 311 304 306 315 316 311 298 270 230 243 222 214 200 201 198 194 190 196 197 197 195 196 199 196
261 270 275 284 316 307 297 299 308 315 321 323 319 315 317 318 325 319 315 310 310 315 317 311 309 312 313 298 257 249 231 212 200 201 194 190 181 189 213 205 203 201 197 196
278 289 286 287 296 302 298 298 301 303 300 303 306 305 307 311 315 314 307 304 305 306 306 309 313 309 316 311 297 282 266 233 185 196 195 194 192 186 199 299 307 229 207 207
293 287 272 273 274 284 292 296 295 293 292 294 302 305 306 308 312 315 318 312 300 287 278 285 294 298 314 315 309 291 282 271 231 202 202 207 208 204 197 199 222 272 246 222
272 272 272 284 282 276 281 290 293 294 305 309 313 313 317 317 314 317 318 321 312 304 298 298 302 309 323 315 303 290 273 271 262 221 204 213 214 217 217 213 211 218 223 224
269 265 258 260 268 273 274 279 286 293 301 303 305 304 305 305 306 309 314 323 313 307 309 311 310 319 311 273 269 270 241 248 258 247 233 226 221 225 233 227 219 216 217 219
255 254 250 251 261 271 277 279 283 290 297 299 300 300 298 301 302 306 309 311 314 312 313 311 311 313 296 275 268 269 258 253 260 268 252 241 230 227 233 235 235 230 228 223
245 251 256 262 270 278 282 289 293 294 295 298 301 294 285 284 289 295 299 299 307 310 317 322 333 323 307 301 300 288 266 257 260 263 268 262 257 240 236 237 238 239 235 223
245 252 266 277 284 287 288 289 291 294 297 296 289 286 284 285 292 300 304 302 303 303 315 335 333 320 314 327 327 290 259 253 265 265 263 263 270 270 260 257 253 243 233 222
243 246 250 270 280 282 285 289 291 291 293 295 291 288 285 286 292 297 299 293 287 297 320 342 330 319 321 328 316 289 267 254 252 256 255 254 254 260 264 270 270 262 247 234
235 241 245 256 262 268 276 280 279 278 281 280 283 287 289 285 283 285 289 295 305 334 339 333 335 339 333 328 305 281 267 267 263 259 257 265 270 270 268 268 265 260 255 248
248 256 264 270 268 268 273 276 276 276 278 278 283 285 284 280 276 274 272 277 295 326 331 323 332 338 339 334 311 296 294 289 283 274 264 262 268 267 264 271 279 276 268 262
252 261 280 285 281 281 279 278 277 274 275 277 280 278 275 276 270 269 277 291 311 323 317 312 324 327 329 326 310 307 310 307 302 299 296 291 289 285 278 272 277 283 275 266
264 266 276 282 279 277 280 289 294 290 285 278 279 285 285 286 287 289 286 284 296 292 288 294 303 311 311 300 296 301 302 304 305 307 307 305 304 297 292 286 278 278 279 270
257 258 261 268 273 275 283 294 295 296 295 296 304 309 302 294 294 303 307 296 279 274 285 299 301 302 297 287 292 292 291 289 296 300 298 296 296 300 306 311 310 304 298 290
265 262 260 266 279 283 275 274 283 293 300 309 317 321 323 327 323 321 319 318 313 292 289 290 286 288 295 301 303 297 294 294 291 291 299 296 291 293 303 306 303 300 304 307
262 261 264 265 267 274 277 271 273 280 289 299 303 307 311 312 313 318 318 318 318 302 292 285 282 278 287 295 296 297 302 307 310 313 314 311 311 309 304 303 308 311 312 310
Height
1500 1498 1498 1500 1501 1501 1504 1505 1510 1505 1503 1500 1500 1502 1504 1505 1506 1507 1508 1509 1509 1509 1509 1509 1509 1510 1510 1511 1512 1512 1513 1514 1515 1516 1517 1518 1519 1520 1520 1521 1522 1522 1522 1523
1502 1497 1497 1499 1498 1498 1499 1500 1501 1501 1501 1498 1500 1502 1504 1505 1506 1506 1507 1507 1508 1508 1508 1508 1508 1508 1508 1508 1509 1510 1511 1512 1513 1514 1515 1516 1517 1517 1518 1519 1520 1520 1520 1521
1507 1498 1499 1502 1495 1494 1496 1496 1499 1503 1502 1499 1501 1502 1504 1504 1505 1506 1506 1507 1507 1506 1506 1506 1506 1506 1506 1506 1506 1507 1508 1509 1510 1511 1512 1513 1514 1515 1516 1517 1517 1518 1519 1519
1507 1505 1513 1499 1490 1491 1494 1494 1495 1497 1499 1500 1502 1503 1504 1504 1505 1505 1505 1505 1505 1505 1504 1504 1504 1504 1503 1503 1504 1504 1505 1506 1507 1508 1509 1511 1512 1512 1513 1514 1515 1516 1517 1517
1509 1510 1504 1495 1491 1492 1495 1497 1495 1497 1498 1500 1501 1502 1503 1504 1504 1504 1503 1503 1503 1503 1502 1502 1502 1501 1501 1501 1501 1501 1502 1503 1505 1506 1507 1508 1509 1510 1511 1512 1513 1514 1514 1515
1508 1512 1511 1501 1493 1492 1496 1500 1497 1498 1499 1501 1501 1503 1503 1503 1502 1502 1502 1501 1501 1500 1499 1499 1498 1498 1498 1498 1498 1498 1499 1500 1502 1503 1504 1505 1506 1507 1508 1509 1510 1511 1512 1513
1509 1510 1503 1497 1495 1495 1505 1505 1499 1499 1500 1501 1502 1503 1503 1502 1501 1501 1500 1499 1498 1497 1496 1496 1495 1495 1495 1495 1495 1495 1496 1497 1498 1499 1500 1502 1503 1504 1505 1506 1507 1508 1509 1510
1505 1509 1508 1499 1498 1500 1502 1500 1499 1500 1501 1501 1501 1501 1501 1500 1499 1498 1498 1497 1496 1495 1494 1493 1492 1493 1492 1493 1492 1493 1493 1494 1495 1496 1497 1499 1500 1501 1502 1503 1504 1505 1506 1507
1500 1503 1500 1499 1500 1501 1501 1501 1501 1501 1501 1501 1500 1500 1500 1499 1498 1497 1496 1495 1494 1494 1493 1491 1491 1491 1490 1490 1491 1490 1490 1491 1492 1493 1494 1495 1496 1497 1498 1500 1501 1501 1502 1503
1497 1496 1498 1499 1500 1500 1501 1501 1501 1500 1500 1500 1499 1499 1498 1497 1496 1495 1494 1493 1492 1492 1491 1490 1489 1489 1489 1489 1489 1488 1488 1488 1489 1490 1491 1492 1493 1494 1495 1496 1497 1498 1499 1500
1496 1496 1497 1498 1499 1499 1499 1500 1499 1499 1499 1499 1498 1497 1496 1495 1494 1493 1492 1492 1491 1489 1489 1488 1487 1487 1487 1486 1486 1486 1486 1486 1487 1487 1488 1489 1490 1491 1491 1492 1493 1494 1495 1496
1495 1495 1496 1496 1497 1497 1498 1498 1497 1497 1497 1497 1496 1495 1494 1493 1492 1491 1490 1490 1489 1488 1487 1486 1485 1485 1485 1485 1484 1484 1484 1484 1484 1484 1485 1486 1486 1487 1488 1490 1490 1491 1492 1493
1491 1492 1493 1493 1494 1495 1495 1495 1496 1495 1495 1494 1494 1493 1492 1491 1490 1489 1488 1488 1486 1486 1485 1484 1483 1483 1482 1482 1482 1482 1482 1482 1482 1482 1482 1482 1483 1484 1484 1486 1487 1488 1488 1489
1489 1490 1490 1491 1492 1493 1493 1493 1493 1493 1492 1492 1491 1490 1490 1489 1488 1487 1486 1485 1484 1483 1482 1482 1481 1480 1480 1480 1479 1479 1479 1479 1479 1479 1479 1480 1480 1481 1481 1481 1482 1482 1484 1485
1487 1487 1488 1489 1489 1490 1490 1490 1490 1490 1489 1489 1489 1488 1487 1486 1486 1485 1484 1483 1482 1481 1480 1479 1478 1478 1477 1477 1476 1476 1476 1476 1476 1476 1476 1476 1477 1477 1478 1478 1478 1478 1479 1480
1484 1484 1485 1486 1487 1487 1487 1487 1487 1487 1487 1486 1486 1485 1485 1484 1483 1482 1481 1480 1479 1478 1477 1476 1475 1475 1475 1474 1473 1473 1473 1472 1472 1472 1472 1473 1473 1473 1474 1474 1474 1474 1474 1475
1481 1481 1482 1483 1484 1484 1484 1484 1484 1484 1484 1483 1483 1482 1481 1481 1480 1479 1478 1477 1476 1475 1474 1473 1473 1472 1471 1471 1470 1470 1469 1469 1469 1469 1469 1469 1469 1469 1469 1470 1470 1470 1470 1470
1477 1478 1479 1480 1480 1481 1481 1481 1481 1480 1480 1479 1479 1478 1477 1477 1476 1475 1475 1474 1473 1472 1472 1471 1470 1469 1468 1468 1467 1466 1466 1465 1465 1466 1466 1466 1466 1466 1466 1466 1466 1466 1465 1466
1474 1475 1475 1476 1477 1477 1477 1477 1477 1477 1476 1475 1475 1474 1474 1473 1473 1472 1471 1470 1470 1468 1468 1467 1466 1466 1465 1464 1464 1463 1462 1462 1462 1462 1462 1462 1462 1462 1462 1461 1461 1461 1461 1461
1471 1472 1472 1473 1474 1474 1474 1474 1473 1473 1472 1471 1471 1470 1470 1469 1469 1468 1467 1467 1466 1465 1465 1464 1463 1462 1462 1461 1460 1459 1459 1458 1458 1458 1458 1458 1458 1457 1457 1457 1457 1456 1456 1456
1468 1469 1469 1470 1470 1470 1470 1470 1470 1469 1468 1468 1467 1466 1466 1465 1465 1464 1464 1463 1462 1462 1461 1460 1460 1459 1458 1457 1457 1456 1455 1455 1455 1454 1454 1454 1454 1453 1453 1453 1452 1452 1451 1451
1465 1466 1466 1467 1467 1467 1467 1467 1466 1465 1465 1464 1463 1463 1462 1461 1461 1460 1460 1460 1459 1458 1458 1457 1456 1455 1455 1454 1453 1452 1452 1452 1451 1451 1450 1450 1450 1449 1449 1449 1448 1448 1447 1446
1463 1463 1463 1464 1464 1463 1463 1463 1463 1462 1461 1460 1460 1459 1458 1458 1457 1457 1456 1456 1456 1455 1454 1453 1453 1452 1452 1451 1450 1449 1449 1448 1448 1448 1447 1447 1446 1446 1445 1444 1444 1443 1443 1442
1460 1460 1460 1461 1461 1460 1460 1460 1459 1459 1458 1457 1456 1455 1455 1454 1454 1453 1453 1452 1452 1451 1450 1450 1449 1448 1448 1447 1446 1446 1445 1445 1444 1444 1443 1443 1442 1442 1441 1440 1439 1439 1438 1438
1457 1457 1458 1458 1458 1457 1457 1456 1456 1455 1454 1454 1453 1453 1452 1451 1451 1450 1449 1449 1448 1448 1446 1446 1445 1445 1444 1443 1443 1442 1442 1441 1441 1441 1440 1439 1439 1438 1437 1436 1436 1435 1435 1434
1455 1455 1454 1454 1454 1454 1454 1453 1452 1452 1451 1450 1450 1449 1449 1448 1447 1446 1445 1445 1444 1444 1443 1442 1441 1441 1441 1440 1439 1439 1438 1438 1437 1437 1436 1436 1435 1434 1434 1433 1433 1432 1431 1430
1451 1451 1451 1451 1451 1451 1450 1450 1449 1449 1448 1447 1447 1446 1446 1445 1444 1443 1442 1441 1440 1440 1439 1439 1438 1437 1437 1436 1436 1435 1435 1434 1434 1433 1433 1432 1432 1431 1430 1430 1429 1428 1427 1426